This is the latest recevied weather packets stored in our database for station/object K1KOF. If no packets are shown the sender has not sent any weather packets the latest 10 day(s).
| Time | Temp. | Humidity | Pressure | Rain* | Wind** | Luminosity | Snow |
|---|---|---|---|---|---|---|---|
| 1778097556 | 30.56° C | 52% | 1023.1 hPa | 0 mm | - | 646 W/m² | - |
| 1778097253 | 28.89° C | 53% | 1023.5 hPa | 0 mm | - | 471 W/m² | - |
| 1778096950 | 28.89° C | 54% | 1023.3 hPa | 0 mm | - | 688 W/m² | - |
| 1778096647 | 29.44° C | 53% | 1023.4 hPa | 0 mm | - | 684 W/m² | - |
| 1778096344 | 28.89° C | 54% | 1023.5 hPa | 0 mm | - | 597 W/m² | - |
| 1778096041 | 29.44° C | 55% | 1023.7 hPa | 0 mm | - | 690 W/m² | - |
| 1778095737 | 28.89° C | 54% | 1023.8 hPa | 0 mm | - | 640 W/m² | - |
| 1778095434 | 28.33° C | 54% | 1023.7 hPa | 0 mm | - | 668 W/m² | - |
| 1778095131 | 27.78° C | 57% | 1023.5 hPa | 0 mm | - | 632 W/m² | - |
| 1778094827 | 27.78° C | 61% | 1023.9 hPa | 0 mm | - | 746 W/m² | - |
| 1778094525 | 27.22° C | 62% | 1023.5 hPa | 0 mm | - | 714 W/m² | - |
| 1778094220 | 27.22° C | 62% | 1023.6 hPa | 0 mm | - | 651 W/m² | - |
| 1778093917 | 27.78° C | 62% | 1023.8 hPa | 0 mm | - | 725 W/m² | - |
| 1778093615 | 27.78° C | 62% | 1023.8 hPa | 0 mm | - | 669 W/m² | - |
| 1778093312 | 27.22° C | 64% | 1024.2 hPa | 0 mm | - | 692 W/m² | - |
| 1778093009 | 26.67° C | 63% | 1024.3 hPa | 0 mm | - | 557 W/m² | - |
| 1778092706 | 26.67° C | 65% | 1024.3 hPa | 0 mm | - | 810 W/m² | - |
| 1778092401 | 26.67° C | 66% | 1024.3 hPa | 0 mm | - | 429 W/m² | - |
| 1778092099 | 26.67° C | 65% | 1024.1 hPa | 0 mm | - | 486 W/m² | - |
| 1778091796 | 26.67° C | 66% | 1024.3 hPa | 0 mm | - | 902 W/m² | - |
| 1778091494 | 26.11° C | 66% | 1024 hPa | 0 mm | - | 614 W/m² | - |
| 1778091191 | 25.56° C | 67% | 1024.1 hPa | 0 mm | - | 669 W/m² | - |
| 1778090888 | 25.56° C | 69% | 1024.6 hPa | 0 mm | - | 714 W/m² | - |
| 1778090584 | 25.56° C | 70% | 1024.4 hPa | 0 mm | - | 422 W/m² | - |
| 1778090280 | 25° C | 71% | 1024.6 hPa | 0 mm | - | 335 W/m² | - |
* Rain latest hour (hover to see other rain measurements)
** Current wind speed in m/s (hover to see current wind gust speed)